www.pogodaiklimat.ru

Погода и климат >> Архив погоды >> Россия >> Якутия >> Усть-Мая


ПОГОДА в Усть-Мае

АРХИВ ПОГОДЫ в Усть-Мае

Время (UTC), дата Ветер
(напр.,м/с)
 
Видим.   Явления Облачность Т
(С)
Тd
(С)
f
(%)
Тe
(С)
Тes
(С)
Комфортность P
(гПа)
Po
(гПа)
Тmin
(С)
Tmax
(С)
R
(мм)
S
(см)
03 16.03 С 2 4000 м дымка 6/6 300 м
[St]
-6.6 -6.6 100 -11 -9 1020.9 999.0
06 16.03 С 2 50 км 4/1 600 м
[Cu hum Ci fib]
-4.0 -4.9 93 -8 -6 1019.4 997.7
09 16.03 СВ 1 50 км ясно -5.3 -8.2 80 -8 -8 1019.1 997.3 -2.7
12 16.03 СВ 1 50 км ясно -9.8 -11.5 87 -12 -12 1020.0 997.8
15 16.03 СВ 1 50 км 3/0
[Ci fib]
-13.1 -13.1 100 -15 -15 1020.5 998.0
18 16.03 С 2 50 км 1/0
[Ci fib]
-16.3 -16.5 98 -22 -22 1021.0 998.2
21 16.03 СВ 2 50 км 1/0
[Ci fib]
-18.1 -18.6 96 -24 -24 1021.3 998.4 -18.4 55
00 17.03 В 1 50 км 4/0
[Ci fib]
-11.1 -12.1 92 -13 -11 1020.7 998.4 -18.9
03 17.03 ЮЗ 1 50 км 10/0
[Cs]
-2.6 -9.5 59 -4 +1 1019.4 997.8
06 17.03 СВ 1 50 км 10/0
[Ac trans Ci fib]
+1.4 -7.6 51 0 +3 1018.8 997.5
09 17.03 С 2 50 км 6/0
[Ac trans]
-0.6 -8.0 57 -4 -4 1019.6 998.2 +3.5
12 17.03 СЗ 2 50 км 8/0
[Ac trans Ci fib]
-3.3 -7.7 72 -7 -7 1022.6 1000.9
15 17.03 СЗ 1 50 км 3/0
[Ci fib]
-9.3 -10.5 91 -12 -12 1024.7 1002.4
18 17.03 Ю 1 50 км 3/0
[Ci fib]
-14.8 -14.8 100 -17 -17 1026.5 1003.7
21 17.03 ЮЗ 1 50 км 3/0
[Ci fib]
-18.0 -18.5 96 -21 -21 1028.4 1005.3 -18.1 55
00 18.03 Ю 1 50 км 3/0
[Ci fib]
-15.3 -16.3 92 -18 -15 1029.5 1006.6 -19.4
03 18.03 ЮВ 1 50 км 1/0
[Ac trans]
-4.2 -9.7 65 -6 -0 1028.9 1006.9
06 18.03 СЗ 3 50 км 1/1 1000 м
[Cu hum]
-2.5 -13.5 43 -7 -5 1028.4 1006.6
09 18.03 СЗ 1 50 км 1/0
[Ci fib]
-4.7 -14.6 46 -6 -6 1028.9 1007.0 -1.7
12 18.03 штиль 0 50 км 3/0
[Ci fib]
-13.7 -18.9 65 -14 -14 1030.2 1007.4
15 18.03 СЗ 1 50 км 3/0
[Ci fib]
-18.5 -19.4 93 1030.8 1007.6
18 18.03 ЮЗ 1 50 км 3/0
[Ci fib]
-23.8 -24.8 91 -27 -27 1031.4 1007.7
21 18.03 ЮЗ 2 50 км ясно -26.3 -27.4 90 -33 -33 опасность
обморожения
1031.8 1007.8 -26.5 55
00 19.03 штиль 0 50 км 8/3 600 м
[Sc Ac trans Ci fib]
-21.1 -23.8 79 -21 -19 1031.4 1007.9 -26.6
03 19.03 Ю 2 50 км 8/1 600 м
[Cu med, cong Ac trans Ci fib]
-9.3 -15.0 63 -14 -11 1029.0 1006.7
06 19.03 СВ 2 50 км 9/4 600 м
[Cb cap Ac trans]
-4.2 -11.8 55 -8 -7 1026.6 1004.7
09 19.03 штиль 0 50 км 9/4 1000 м
[Sc Ac trans]
-6.2 -12.4 61 -7 -7 1026.4 1004.3 -4.0
12 19.03 штиль 0 50 км 10/3 1000 м
[Sc Ac trans]
-8.9 -11.7 80 -9 -9 1026.4 1004.1
15 19.03 штиль 0 50 км 3/0
[Ac trans]
-14.8 -17.5 80 -15 -15 1026.3 1003.6
18 19.03 штиль 0 50 км 3/0
[Ac trans]
-19.4 -19.9 96 -19 -19 1026.3 1003.1
21 19.03 З 1 50 км 1/0
[Ci fib]
-23.0 -24.1 91 -26 -26 1026.4 1002.9 -23.0 55
00 20.03 Ю 1 50 км 1/0
[Ci fib]
-17.7 -19.8 84 -21 -17 1025.5 1002.5 -23.5
03 20.03 Ю 2 50 км 6/1 1000 м
[Cu hum Ci fib]
-7.3 -11.4 72 -12 -7 1023.4 1001.3
06 20.03 СЗ 3 50 км 9/9 600 м
[Cb cap]
-2.9 -9.5 60 -8 -7 1021.4 999.7
09 20.03 С 2 20 км слабый ливневой снег 10/6 600 м
[Cb cap Cs]
-4.5 -8.0 77 -9 -9 1021.4 999.6 -2.8 0.0
12 20.03 СЗ 2 50 км {ливн. осадки} 4/0
[Ac trans Ci fib]
-8.7 -10.1 90 -13 -13 1021.7 999.5
15 20.03 СЗ 2 50 км 3/0
[Ci fib]
-11.6 -11.7 99 -16 -16 1020.7 998.3
18 20.03 З 1 50 км 3/0
[Ci fib]
-19.6 -20.8 90 -23 -23 1020.3 997.2
21 20.03 ЮЗ 2 50 км 1/0
[Ci fib]
-22.2 -22.9 94 -28 -28 1020.0 996.7 -22.6 0.0 54
00 21.03 ЮЗ 1 50 км 1/0
[Ci fib]
-12.9 -15.2 83 -15 -12 1018.4 996.0
03 21.03 В 1 50 км 1/1 1000 м
[Cu hum]
-4.2 -11.3 58 -6 0 1016.5 994.8
06 21.03 СВ 2 50 км 8/1 1000 м
[Cu hum Cs]
-3.2 -11.7 52 -7 -4 1016.1 994.5
09 21.03 СВ 1 50 км 6/0
[Cs]
-5.9 -12.8 58 -8 -8 1017.4 995.5 -2.6
12 21.03 штиль 0 50 км 3/0
[Ci fib]
-13.7 -17.8 71 -14 -14 1018.9 996.4
15 21.03 Ю 1 50 км 3/0
[Ci fib]
-20.1 -20.6 96 -23 -23 1020.1 997.0
18 21.03 штиль 0 50 км ясно -23.9 -24.7 93 -24 -24 1020.8 997.3
21 21.03 штиль 0 50 км 1/0
[Ci fib]
-26.8 -28.1 89 -27 -27 1021.9 998.1 -26.8 54
00 22.03 ЮВ 1 50 км 1/0
[Ci fib]
-20.4 -23.1 79 -23 -20 1022.2 999.0
03 22.03 ЮЗ 2 50 км 8/0
[Ci fib]
-7.4 -15.0 54 -11 -6 1020.2 998.6
06 22.03 Ю 1 50 км 1/0
[Ci fib]
-3.6 -11.0 56 -5 -2 1019.6 997.9
09 22.03 штиль 0 50 км 1/1 1000 м
[Sc]
-2.9 -12.1 49 -3 -3 1019.8 998.2 -1.3
12 22.03 З 1 50 км 3/0
[Ci fib]
-9.5 -12.9 76 -12 -12 1021.2 999.0
15 22.03 ЮЗ 1 50 км ясно -11.3 -12.0 95 -14 -14 1021.8 999.4
18 22.03 ЮЗ 2 50 км 4/0
[Ac trans Ci fib]
-13.5 -14.8 90 -18 -18 1022.1 999.5
21 22.03 ЮЗ 1 50 км {ливн. осадки} 8/4 600 м
[Cb cap Ac trans Ci fib]
-12.1 -13.4 90 -14 -14 1022.3 999.9 -14.6 0.0 53

 

Местоположение метеостанции Усть-Мая (Якутия, Россия): широта 60.35 долгота 134.40 высота над уровнем моря 170 м.

В архиве по умолчанию представлена погода в Усть-Мае за последнюю неделю. Архивные данные за месяц целиком и за предыдущие месяцы, начиная с января 2011 года, Вы можете получить, выбрав интересующий диапазон дат из раскрывающегося списка и нажав кнопку "Ввод!".

Внимание! Время в таблицах - всемирное. Для получения местного времени необходимо прибавить поправку, которая в Усть-Мае равна 9 ч.

Смотрите также архив погоды в соседних городах и на ближайших метеорологических станциях:

Погода в Усть-Миле (Якутия, Россия) (112 км)
Погода в Усть-Юдоме (Якутия, Россия) (136 км)
Погода в Амге (Якутия, Россия) (149 км)
Погода в Охотском Перевозе (Якутия, Россия) (179 км)
Погода в Югоренке (Якутия, Россия) (189 км)
Погода в Чурапче (Якутия, Россия) (210 км)
Погода в Ытык-Кюёле (Якутия, Россия) (230 км)
Погода в Тегюльте (Якутия, Россия) (242 км)
Погода в Крест-Хальджае (Якутия, Россия) (275 км)
Погода в Учуре (Якутия, Россия) (280 км)

Пояснения к столбцам:

Ветер - указаны скорость ветра в м/с - средняя за 10 мин, порывы в срок и между сроками (в фигурных скобках) и направление, откуда дует ветер: С - северный, СВ - северо-восточный, В - восточный, ЮВ - юго-восточный, Ю - южный, ЮЗ - юго-западный, З - западный, СЗ - северо-западный.
Видимость - горизонтальная дальность видимости в метрах или километрах. При видимости от 1 до 10 км при отсутствии осадков обычно наблюдается дымка, при ухудшении видимости до 1 км и менее - туман. В сухую погоду видимость может ухудшаться дымом, пылью или мглою.
Явления - указаны атмосферные явления, наблюдавшиеся в срок или в последний час перед сроком; фигурными скобками обозначены явления, наблюдавшиеся между сроками (за 1-3 часа до срока); квадратными скобками обозначены град или гололедные отложения с указанием их диаметра в мм.
Облачность - указаны через наклонную черту общая и нижняя облачность в баллах и высота нижней границы облаков в метрах; квадратными скобками обозначены формы облаков: Ci - перистые, Cs - перисто-слоистые, Cc - перисто-кучевые, Ac - высококучевые, As - высокослоистые, Sc - слоисто-кучевые, Ns - слоисто-дождевые, Cu - кучевые, Cb - кучево-дождевые. Подробнее классификацию облаков см. в Атласе облаков (PDF).
T - Температура воздуха - температура, измеренная на высоте 2 м над землей.
Td - Температура точки росы - температура, при понижении до которой содержащийся в воздухе водяной пар достигнет насыщения.
f - Относительная влажность воздуха - влажноcть воздуха, измеренная на высоте 2 м над землей.
Te - Эффективная температура - температура, которую ощущает одетый по сезону человек в тени. Характеристика душности погоды. При расчете учитывается влияние влажности воздуха и скорости ветра на теплоощущения человека.
Tes - Эффективная температура на солнце - температура, которую ощущает человек, с поправкой на солнечный нагрев. Характеристика знойности погоды. Зависит от высоты солнца над горизонтом, облачности и скорости ветра. Ночью, в пасмурную погоду, а также при ветре 12 м/с и более поправка равна нулю.
P - Атмосферное давление - приведенное к уровню моря атмосферное давление.
Po - Атмосферное давление - измеренное на уровне метеостанции атмосферное давление.
Tmin - Минимальная температура - минимум температуры воздуха на высоте 2 м над землей.
Tmax - Максимальная температура - максимум температуры воздуха на высоте 2 м над землей.
R - Количество осадков - Количество выпавших осадков, мм. При наведении курсора мыши на число - период времени, за который выпало указанное количество осадков.
S - Снежный покров - Высота снежного покрова, см. При наведении курсора мыши на число - состояние снежного покрова и степень покрытия местности в баллах.